Year,Month,Day,Hour,Minute,Value (Times are PST for temperature in C)
2017,06,24,00,00,19.10
2017,06,24,00,01,19.10
2017,06,24,00,02,19.10
2017,06,24,00,03,19.10
2017,06,24,00,04,19.10
2017,06,24,00,05,19.10
2017,06,24,00,06,19.10
2017,06,24,00,07,19.10
2017,06,24,00,08,19.20
2017,06,24,00,09,19.20
2017,06,24,00,10,19.20
2017,06,24,00,11,19.30
2017,06,24,00,12,19.30
2017,06,24,00,13,19.30
2017,06,24,00,14,19.20
2017,06,24,00,15,19.10
2017,06,24,00,16,18.90
2017,06,24,00,17,18.80
2017,06,24,00,18,18.60
2017,06,24,00,19,18.50
2017,06,24,00,20,18.40
2017,06,24,00,21,18.20
2017,06,24,00,22,18.10
2017,06,24,00,23,18.00
2017,06,24,00,24,17.90
2017,06,24,00,25,17.80
2017,06,24,00,26,17.70
2017,06,24,00,27,17.60
2017,06,24,00,28,17.50
2017,06,24,00,29,17.40
2017,06,24,00,30,17.30
2017,06,24,00,31,17.30
2017,06,24,00,32,17.20
2017,06,24,00,33,17.20
2017,06,24,00,34,17.10
2017,06,24,00,35,17.00
2017,06,24,00,36,16.90
2017,06,24,00,37,16.90
2017,06,24,00,38,16.80
2017,06,24,00,39,16.80
2017,06,24,00,40,16.70
2017,06,24,00,41,16.70
2017,06,24,00,42,16.70
2017,06,24,00,43,16.70
2017,06,24,00,44,16.70
2017,06,24,00,45,16.70
2017,06,24,00,46,16.70
2017,06,24,00,47,16.70
2017,06,24,00,48,16.70
2017,06,24,00,49,16.70
2017,06,24,00,50,16.70
2017,06,24,00,51,16.70
2017,06,24,00,52,16.70
2017,06,24,00,53,16.70
2017,06,24,00,54,16.70
2017,06,24,00,55,16.70
2017,06,24,00,56,16.70
2017,06,24,00,57,16.70
2017,06,24,00,58,16.70
2017,06,24,00,59,16.70
2017,06,24,01,00,16.70
2017,06,24,01,01,16.70
2017,06,24,01,02,16.70
2017,06,24,01,03,16.60
2017,06,24,01,04,16.60
2017,06,24,01,05,16.60
2017,06,24,01,06,16.60
2017,06,24,01,07,16.60
2017,06,24,01,08,16.60
2017,06,24,01,09,16.50
2017,06,24,01,10,16.40
2017,06,24,01,11,16.40
2017,06,24,01,12,16.50
2017,06,24,01,13,16.60
2017,06,24,01,14,16.60
2017,06,24,01,15,16.60
2017,06,24,01,16,16.60
2017,06,24,01,17,16.70
2017,06,24,01,18,16.70
2017,06,24,01,19,16.70
2017,06,24,01,20,16.70
2017,06,24,01,21,16.70
2017,06,24,01,22,16.70
2017,06,24,01,23,16.70
2017,06,24,01,24,16.80
2017,06,24,01,25,16.80
2017,06,24,01,26,16.80
2017,06,24,01,27,16.80
2017,06,24,01,28,16.80
2017,06,24,01,29,16.80
2017,06,24,01,30,16.80
2017,06,24,01,31,16.80
2017,06,24,01,32,16.70
2017,06,24,01,33,16.70
2017,06,24,01,34,16.70
2017,06,24,01,35,16.70
2017,06,24,01,36,16.70
2017,06,24,01,37,16.70
2017,06,24,01,38,16.70
2017,06,24,01,39,16.80
2017,06,24,01,40,16.80
2017,06,24,01,41,16.80
2017,06,24,01,42,16.90
2017,06,24,01,43,16.90
2017,06,24,01,44,16.90
2017,06,24,01,45,17.00
2017,06,24,01,46,17.00
2017,06,24,01,47,17.10
2017,06,24,01,48,17.10
2017,06,24,01,49,17.10
2017,06,24,01,50,17.20
2017,06,24,01,51,17.20
2017,06,24,01,52,17.20
2017,06,24,01,53,17.20
2017,06,24,01,54,17.10
2017,06,24,01,55,17.10
2017,06,24,01,56,17.10
2017,06,24,01,57,17.10
2017,06,24,01,58,17.00
2017,06,24,01,59,17.00
2017,06,24,02,00,17.00
2017,06,24,02,01,16.90
2017,06,24,02,02,16.90
2017,06,24,02,03,16.90
2017,06,24,02,04,16.80
2017,06,24,02,05,16.80
2017,06,24,02,06,16.80
2017,06,24,02,07,16.70
2017,06,24,02,08,16.70
2017,06,24,02,09,16.70
2017,06,24,02,10,16.70
2017,06,24,02,11,16.70
2017,06,24,02,12,16.70
2017,06,24,02,13,16.70
2017,06,24,02,14,16.70
2017,06,24,02,15,16.60
2017,06,24,02,16,16.60
2017,06,24,02,17,16.60
2017,06,24,02,18,16.40
2017,06,24,02,19,16.40
2017,06,24,02,20,16.40
2017,06,24,02,21,16.30
2017,06,24,02,22,16.20
2017,06,24,02,23,16.10
2017,06,24,02,24,16.00
2017,06,24,02,25,15.90
2017,06,24,02,26,15.80
2017,06,24,02,27,15.70
2017,06,24,02,28,15.60
2017,06,24,02,29,15.50
2017,06,24,02,30,15.40
2017,06,24,02,31,15.30
2017,06,24,02,32,15.20
2017,06,24,02,33,15.10
2017,06,24,02,34,15.00
2017,06,24,02,35,14.90
2017,06,24,02,36,14.90
2017,06,24,02,37,14.80
2017,06,24,02,38,14.80
2017,06,24,02,39,14.80
2017,06,24,02,40,14.70
2017,06,24,02,41,14.70
2017,06,24,02,42,14.70
2017,06,24,02,43,14.60
2017,06,24,02,44,14.60
2017,06,24,02,45,14.60
2017,06,24,02,46,14.60
2017,06,24,02,47,14.50
2017,06,24,02,48,14.50
2017,06,24,02,49,14.60
2017,06,24,02,50,14.60
2017,06,24,02,51,14.60
2017,06,24,02,52,14.60
2017,06,24,02,53,14.60
2017,06,24,02,54,14.70
2017,06,24,02,55,14.70
2017,06,24,02,56,14.70
2017,06,24,02,57,14.70
2017,06,24,02,58,14.70
2017,06,24,02,59,14.70
2017,06,24,03,00,14.70
2017,06,24,03,01,14.70
2017,06,24,03,02,14.70
2017,06,24,03,03,14.70
2017,06,24,03,04,14.70
2017,06,24,03,05,14.70
2017,06,24,03,06,14.80
2017,06,24,03,07,14.80
2017,06,24,03,08,14.80
2017,06,24,03,09,14.80
2017,06,24,03,10,14.80
2017,06,24,03,11,14.80
2017,06,24,03,12,14.90
2017,06,24,03,13,14.90
2017,06,24,03,14,15.00
2017,06,24,03,15,15.00
2017,06,24,03,16,15.00
2017,06,24,03,17,15.00
2017,06,24,03,18,15.10
2017,06,24,03,19,15.10
2017,06,24,03,20,15.10
2017,06,24,03,21,15.10
2017,06,24,03,22,15.10
2017,06,24,03,23,15.10
2017,06,24,03,24,15.20
2017,06,24,03,25,15.20
2017,06,24,03,26,15.20
2017,06,24,03,27,15.30
2017,06,24,03,28,15.30
2017,06,24,03,29,15.30
2017,06,24,03,30,15.40
2017,06,24,03,31,15.50
2017,06,24,03,32,15.60
2017,06,24,03,33,15.80
2017,06,24,03,34,16.00
2017,06,24,03,35,16.20
2017,06,24,03,36,16.40
2017,06,24,03,37,16.70
2017,06,24,03,38,16.90
2017,06,24,03,39,17.20
2017,06,24,03,40,17.40
2017,06,24,03,41,17.60
2017,06,24,03,42,17.80
2017,06,24,03,43,18.00
2017,06,24,03,44,18.10
2017,06,24,03,45,18.30
2017,06,24,03,46,18.50
2017,06,24,03,47,18.60
2017,06,24,03,48,18.70
2017,06,24,03,49,18.80
2017,06,24,03,50,18.90
2017,06,24,03,51,18.90
2017,06,24,03,52,19.00
2017,06,24,03,53,19.10
2017,06,24,03,54,19.10
2017,06,24,03,55,19.20
2017,06,24,03,56,19.20
2017,06,24,03,57,19.30
2017,06,24,03,58,19.30
2017,06,24,03,59,19.30
2017,06,24,04,00,19.30
2017,06,24,04,01,19.30
2017,06,24,04,02,19.20
2017,06,24,04,03,19.20
2017,06,24,04,04,19.20
2017,06,24,04,05,19.10
2017,06,24,04,06,19.10
2017,06,24,04,07,19.00
2017,06,24,04,08,18.90
2017,06,24,04,09,18.90
2017,06,24,04,10,18.80
2017,06,24,04,11,18.70
2017,06,24,04,12,18.60
2017,06,24,04,13,18.50
2017,06,24,04,14,18.40
2017,06,24,04,15,18.30
2017,06,24,04,16,18.20
2017,06,24,04,17,18.10
2017,06,24,04,18,18.00
2017,06,24,04,19,17.90
2017,06,24,04,20,17.90
2017,06,24,04,21,17.80
2017,06,24,04,22,17.70
2017,06,24,04,23,17.50
2017,06,24,04,24,17.40
2017,06,24,04,25,17.30
2017,06,24,04,26,17.30
2017,06,24,04,27,17.10
2017,06,24,04,28,17.00
2017,06,24,04,29,16.90
2017,06,24,04,30,16.90
2017,06,24,04,31,16.80
2017,06,24,04,32,16.70
2017,06,24,04,33,16.60
2017,06,24,04,34,16.50
2017,06,24,04,35,16.40
2017,06,24,04,36,16.40
2017,06,24,04,37,16.30
2017,06,24,04,38,16.20
2017,06,24,04,39,16.10
2017,06,24,04,40,16.10
2017,06,24,04,41,16.00
2017,06,24,04,42,15.90
2017,06,24,04,43,15.80
2017,06,24,04,44,15.80
2017,06,24,04,45,15.70
2017,06,24,04,46,15.60
2017,06,24,04,47,15.60
2017,06,24,04,48,15.50
2017,06,24,04,49,15.50
2017,06,24,04,50,15.50
2017,06,24,04,51,15.50
2017,06,24,04,52,15.50
2017,06,24,04,53,15.40
2017,06,24,04,54,15.40
2017,06,24,04,55,15.40
2017,06,24,04,56,15.30
2017,06,24,04,57,15.30
2017,06,24,04,58,15.30
2017,06,24,04,59,15.20
2017,06,24,05,00,15.10
2017,06,24,05,01,15.10
2017,06,24,05,02,15.00
2017,06,24,05,03,14.90
2017,06,24,05,04,14.80
2017,06,24,05,05,14.80
2017,06,24,05,06,14.80
2017,06,24,05,07,14.80
2017,06,24,05,08,14.70
2017,06,24,05,09,14.70
2017,06,24,05,10,14.70
2017,06,24,05,11,14.70
2017,06,24,05,12,14.70
2017,06,24,05,13,14.80
2017,06,24,05,14,14.80
2017,06,24,05,15,14.80
2017,06,24,05,16,14.90
2017,06,24,05,17,15.00
2017,06,24,05,18,15.00
2017,06,24,05,19,15.10
2017,06,24,05,20,15.20
2017,06,24,05,21,15.30
2017,06,24,05,22,15.50
2017,06,24,05,23,15.60
2017,06,24,05,24,15.70
2017,06,24,05,25,15.80
2017,06,24,05,26,15.80
2017,06,24,05,27,15.90
2017,06,24,05,28,15.90
2017,06,24,05,29,16.00
2017,06,24,05,30,16.10
2017,06,24,05,31,16.10
2017,06,24,05,32,16.10
2017,06,24,05,33,16.10
2017,06,24,05,34,16.10
2017,06,24,05,35,16.20
2017,06,24,05,36,16.20
2017,06,24,05,37,16.30
2017,06,24,05,38,16.30
2017,06,24,05,39,16.40
2017,06,24,05,40,16.40
2017,06,24,05,41,16.40
2017,06,24,05,42,16.50
2017,06,24,05,43,16.60
2017,06,24,05,44,16.70
2017,06,24,05,45,16.70
2017,06,24,05,46,16.80
2017,06,24,05,47,16.90
2017,06,24,05,48,17.00
2017,06,24,05,49,17.00
2017,06,24,05,50,17.10
2017,06,24,05,51,17.20
2017,06,24,05,52,17.30
2017,06,24,05,53,17.30
2017,06,24,05,54,17.30
2017,06,24,05,55,17.40
2017,06,24,05,56,17.40
2017,06,24,05,57,17.40
2017,06,24,05,58,17.40
2017,06,24,05,59,17.50
2017,06,24,06,00,17.50
2017,06,24,06,01,17.50
2017,06,24,06,02,17.50
2017,06,24,06,03,17.50
2017,06,24,06,04,17.60
2017,06,24,06,05,17.60
2017,06,24,06,06,17.50
2017,06,24,06,07,17.50
2017,06,24,06,08,17.50
2017,06,24,06,09,17.40
2017,06,24,06,10,17.40
2017,06,24,06,11,17.30
2017,06,24,06,12,17.30
2017,06,24,06,13,17.30
2017,06,24,06,14,17.30
2017,06,24,06,15,17.30
2017,06,24,06,16,17.30
2017,06,24,06,17,17.30
2017,06,24,06,18,17.30
2017,06,24,06,19,17.30
2017,06,24,06,20,17.30
2017,06,24,06,21,17.30
2017,06,24,06,22,17.30
2017,06,24,06,23,17.30
2017,06,24,06,24,17.30
2017,06,24,06,25,17.30
2017,06,24,06,26,17.30
2017,06,24,06,27,17.30
2017,06,24,06,28,17.30
2017,06,24,06,29,17.30
2017,06,24,06,30,17.30
2017,06,24,06,31,17.40
2017,06,24,06,32,17.40
2017,06,24,06,33,17.40
2017,06,24,06,34,17.50
2017,06,24,06,35,17.50
2017,06,24,06,36,17.60
2017,06,24,06,37,17.70
2017,06,24,06,38,17.70
2017,06,24,06,39,17.80
2017,06,24,06,40,17.80
2017,06,24,06,41,17.80
2017,06,24,06,42,17.80
2017,06,24,06,43,17.80
2017,06,24,06,44,17.80
2017,06,24,06,45,17.80
2017,06,24,06,46,17.70
2017,06,24,06,47,17.70
2017,06,24,06,48,17.60
2017,06,24,06,49,17.60
2017,06,24,06,50,17.50
2017,06,24,06,51,17.50
2017,06,24,06,52,17.50
2017,06,24,06,53,17.50
2017,06,24,06,54,17.50
2017,06,24,06,55,17.50
2017,06,24,06,56,17.60
2017,06,24,06,57,17.60
2017,06,24,06,58,17.60
2017,06,24,06,59,17.70
2017,06,24,07,00,17.70
2017,06,24,07,01,17.70
2017,06,24,07,02,17.70
2017,06,24,07,03,17.70
2017,06,24,07,04,17.80
2017,06,24,07,05,17.80
2017,06,24,07,06,17.80
2017,06,24,07,07,17.80
2017,06,24,07,08,17.80
2017,06,24,07,09,17.80
2017,06,24,07,10,17.80
2017,06,24,07,11,17.80
2017,06,24,07,12,17.80
2017,06,24,07,13,17.80
2017,06,24,07,14,17.80
2017,06,24,07,15,17.80
2017,06,24,07,16,17.80
2017,06,24,07,17,17.70
2017,06,24,07,18,17.70
2017,06,24,07,19,17.70
2017,06,24,07,20,17.70
2017,06,24,07,21,17.70
2017,06,24,07,22,17.70
2017,06,24,07,23,17.70
2017,06,24,07,24,17.70
2017,06,24,07,25,17.60
2017,06,24,07,26,17.60
2017,06,24,07,27,17.60
2017,06,24,07,28,17.60
2017,06,24,07,29,17.60
2017,06,24,07,30,17.60
2017,06,24,07,31,17.70
2017,06,24,07,32,17.70
2017,06,24,07,33,17.70
2017,06,24,07,34,17.80
2017,06,24,07,35,17.80
2017,06,24,07,36,17.80
2017,06,24,07,37,17.90
2017,06,24,07,38,17.90
2017,06,24,07,39,17.90
2017,06,24,07,40,17.90
2017,06,24,07,41,17.90
2017,06,24,07,42,17.90
2017,06,24,07,43,17.90
2017,06,24,07,44,17.90
2017,06,24,07,45,17.90
2017,06,24,07,46,17.90
2017,06,24,07,47,17.90
2017,06,24,07,48,17.90
2017,06,24,07,49,18.00
2017,06,24,07,50,18.10
2017,06,24,07,51,18.10
2017,06,24,07,52,18.10
2017,06,24,07,53,18.10
2017,06,24,07,54,18.10
2017,06,24,07,55,18.10
2017,06,24,07,56,18.10
2017,06,24,07,57,18.10
2017,06,24,07,58,18.20
2017,06,24,07,59,18.20
2017,06,24,08,00,18.20
2017,06,24,08,01,18.20
2017,06,24,08,02,18.20
2017,06,24,08,03,18.30
2017,06,24,08,04,18.30
2017,06,24,08,05,18.30
2017,06,24,08,06,18.30
2017,06,24,08,07,18.40
2017,06,24,08,08,18.40
2017,06,24,08,09,18.40
2017,06,24,08,10,18.40
2017,06,24,08,11,18.40
2017,06,24,08,12,18.40
2017,06,24,08,13,18.40
2017,06,24,08,14,18.40
2017,06,24,08,15,18.40
2017,06,24,08,16,18.40
2017,06,24,08,17,18.40
2017,06,24,08,18,18.40
2017,06,24,08,19,18.40
2017,06,24,08,20,18.40
2017,06,24,08,21,18.50
2017,06,24,08,22,18.50
2017,06,24,08,23,18.60
2017,06,24,08,24,18.70
2017,06,24,08,25,18.70
2017,06,24,08,26,18.80
2017,06,24,08,27,18.90
2017,06,24,08,28,18.90
2017,06,24,08,29,19.00
2017,06,24,08,30,19.10
2017,06,24,08,31,19.10
2017,06,24,08,32,19.20
2017,06,24,08,33,19.20
2017,06,24,08,34,19.20
2017,06,24,08,35,19.20
2017,06,24,08,36,19.20
2017,06,24,08,37,19.20
2017,06,24,08,38,19.20
2017,06,24,08,39,19.30
2017,06,24,08,40,19.30
2017,06,24,08,41,19.30
2017,06,24,08,42,19.30
2017,06,24,08,43,19.30
2017,06,24,08,44,19.30
2017,06,24,08,45,19.30
2017,06,24,08,46,19.20
2017,06,24,08,47,19.20
2017,06,24,08,48,19.20
2017,06,24,08,49,19.20
2017,06,24,08,50,19.20
2017,06,24,08,51,19.20
2017,06,24,08,52,19.30
2017,06,24,08,53,19.30
2017,06,24,08,54,19.30
2017,06,24,08,55,19.30
2017,06,24,08,56,19.30
2017,06,24,08,57,19.20
2017,06,24,08,58,19.30
2017,06,24,08,59,19.30
2017,06,24,09,00,19.30
2017,06,24,09,01,19.30
2017,06,24,09,02,19.30
2017,06,24,09,03,19.30
2017,06,24,09,04,19.40
2017,06,24,09,05,19.40
2017,06,24,09,06,19.50
2017,06,24,09,07,19.50
2017,06,24,09,08,19.60
2017,06,24,09,09,19.60
2017,06,24,09,10,19.70
2017,06,24,09,11,19.70
2017,06,24,09,12,19.70
2017,06,24,09,13,19.70
2017,06,24,09,14,19.80
2017,06,24,09,15,19.80
2017,06,24,09,16,19.80
2017,06,24,09,17,19.80
2017,06,24,09,18,19.80
2017,06,24,09,19,19.90
2017,06,24,09,20,19.90
2017,06,24,09,21,19.90
2017,06,24,09,22,19.90
2017,06,24,09,23,19.90
2017,06,24,09,24,19.90
2017,06,24,09,25,19.90
2017,06,24,09,26,19.90
2017,06,24,09,27,19.90
2017,06,24,09,28,19.90
2017,06,24,09,29,19.90
2017,06,24,09,30,19.90
2017,06,24,09,31,19.90
2017,06,24,09,32,19.90
2017,06,24,09,33,19.90
2017,06,24,09,34,20.10
2017,06,24,09,35,20.10
2017,06,24,09,36,20.10
2017,06,24,09,37,20.20
2017,06,24,09,38,20.10
2017,06,24,09,39,20.10
2017,06,24,09,40,20.10
2017,06,24,09,41,20.10
2017,06,24,09,42,20.00
2017,06,24,09,43,19.90
2017,06,24,09,44,19.90
2017,06,24,09,45,19.90
2017,06,24,09,46,20.00
2017,06,24,09,47,20.10
2017,06,24,09,48,20.20
2017,06,24,09,49,20.20
2017,06,24,09,50,20.30
2017,06,24,09,51,20.30
2017,06,24,09,52,20.30
2017,06,24,09,53,20.30
2017,06,24,09,54,20.40
2017,06,24,09,55,20.40
2017,06,24,09,56,20.40
2017,06,24,09,57,20.40
2017,06,24,09,58,20.40
2017,06,24,09,59,20.50
2017,06,24,10,00,20.50
2017,06,24,10,01,20.60
2017,06,24,10,02,20.70
2017,06,24,10,03,20.70
2017,06,24,10,04,20.80
2017,06,24,10,05,20.80
2017,06,24,10,06,20.80
2017,06,24,10,07,20.90
2017,06,24,10,08,20.90
2017,06,24,10,09,21.00
2017,06,24,10,10,21.00
2017,06,24,10,11,21.00
2017,06,24,10,12,21.00
2017,06,24,10,13,21.00
2017,06,24,10,14,21.10
2017,06,24,10,15,21.00
2017,06,24,10,16,21.00
2017,06,24,10,17,20.90
2017,06,24,10,18,20.80
2017,06,24,10,19,20.70
2017,06,24,10,20,20.60
2017,06,24,10,21,20.60
2017,06,24,10,22,20.70
2017,06,24,10,23,20.70
2017,06,24,10,24,20.80
2017,06,24,10,25,20.80
2017,06,24,10,26,20.80
2017,06,24,10,27,20.90
2017,06,24,10,28,21.00
2017,06,24,10,29,21.00
2017,06,24,10,30,21.10
2017,06,24,10,31,21.00
2017,06,24,10,32,21.00
2017,06,24,10,33,20.90
2017,06,24,10,34,20.80
2017,06,24,10,35,20.80
2017,06,24,10,36,20.70
2017,06,24,10,37,20.60
2017,06,24,10,38,20.50
2017,06,24,10,39,20.50
2017,06,24,10,40,20.50
2017,06,24,10,41,20.50
2017,06,24,10,42,20.50
2017,06,24,10,43,20.60
2017,06,24,10,44,20.70
2017,06,24,10,45,20.80
2017,06,24,10,46,20.90
2017,06,24,10,47,20.90
2017,06,24,10,48,21.00
2017,06,24,10,49,21.10
2017,06,24,10,50,21.30
2017,06,24,10,51,21.30
2017,06,24,10,52,21.30
2017,06,24,10,53,21.30
2017,06,24,10,54,21.30
2017,06,24,10,55,21.40
2017,06,24,10,56,21.50
2017,06,24,10,57,21.60
2017,06,24,10,58,21.70
2017,06,24,10,59,21.80
2017,06,24,11,00,21.90
2017,06,24,11,01,22.00
2017,06,24,11,02,22.00
2017,06,24,11,03,22.00
2017,06,24,11,04,22.00
2017,06,24,11,05,22.00
2017,06,24,11,06,22.10
2017,06,24,11,07,22.20
2017,06,24,11,08,22.30
2017,06,24,11,09,22.30
2017,06,24,11,10,22.30
2017,06,24,11,11,22.30
2017,06,24,11,12,22.30
2017,06,24,11,13,22.30
2017,06,24,11,14,22.30
2017,06,24,11,15,22.30
2017,06,24,11,16,22.30
2017,06,24,11,17,22.30
2017,06,24,11,18,22.30
2017,06,24,11,19,22.30
2017,06,24,11,20,22.40
2017,06,24,11,21,22.60
2017,06,24,11,22,22.70
2017,06,24,11,23,22.70
2017,06,24,11,24,22.70
2017,06,24,11,25,22.70
2017,06,24,11,26,22.70
2017,06,24,11,27,22.60
2017,06,24,11,28,22.60
2017,06,24,11,29,22.70
2017,06,24,11,30,22.70
2017,06,24,11,31,22.80
2017,06,24,11,32,22.90
2017,06,24,11,33,22.90
2017,06,24,11,34,23.00
2017,06,24,11,35,23.10
2017,06,24,11,36,23.10
2017,06,24,11,37,23.10
2017,06,24,11,38,23.10
2017,06,24,11,39,23.10
2017,06,24,11,40,23.10
2017,06,24,11,41,23.00
2017,06,24,11,42,23.00
2017,06,24,11,43,22.90
2017,06,24,11,44,22.90
2017,06,24,11,45,22.70
2017,06,24,11,46,22.60
2017,06,24,11,47,22.40
2017,06,24,11,48,22.30
2017,06,24,11,49,22.30
2017,06,24,11,50,22.30
2017,06,24,11,51,22.30
2017,06,24,11,52,22.20
2017,06,24,11,53,22.20
2017,06,24,11,54,22.20
2017,06,24,11,55,22.20
2017,06,24,11,56,22.20
2017,06,24,11,57,22.30
2017,06,24,11,58,22.40
2017,06,24,11,59,22.40
2017,06,24,12,00,22.40
2017,06,24,12,01,22.30
2017,06,24,12,02,22.30
2017,06,24,12,03,22.40
2017,06,24,12,04,22.50
2017,06,24,12,05,22.60
2017,06,24,12,06,22.70
2017,06,24,12,07,22.70
2017,06,24,12,08,22.80
2017,06,24,12,09,22.90
2017,06,24,12,10,23.00
2017,06,24,12,11,23.10
2017,06,24,12,12,23.10
2017,06,24,12,13,23.20
2017,06,24,12,14,23.30
2017,06,24,12,15,23.30
2017,06,24,12,16,23.30
2017,06,24,12,17,23.40
2017,06,24,12,18,23.40
2017,06,24,12,19,23.40
2017,06,24,12,20,23.30
2017,06,24,12,21,23.30
2017,06,24,12,22,23.20
2017,06,24,12,23,23.20
2017,06,24,12,24,23.10
2017,06,24,12,25,23.00
2017,06,24,12,26,22.90
2017,06,24,12,27,22.90
2017,06,24,12,28,22.80
2017,06,24,12,29,22.80
2017,06,24,12,30,22.80
2017,06,24,12,31,22.80
2017,06,24,12,32,22.90
2017,06,24,12,33,22.90
2017,06,24,12,34,22.80
2017,06,24,12,35,22.70
2017,06,24,12,36,22.60
2017,06,24,12,37,22.50
2017,06,24,12,38,22.40
2017,06,24,12,39,22.40
2017,06,24,12,40,22.40
2017,06,24,12,41,22.40
2017,06,24,12,42,22.40
2017,06,24,12,43,22.40
2017,06,24,12,44,22.40
2017,06,24,12,45,22.40
2017,06,24,12,46,22.40
2017,06,24,12,47,22.50
2017,06,24,12,48,22.50
2017,06,24,12,49,22.60
2017,06,24,12,50,22.70
2017,06,24,12,51,22.80
2017,06,24,12,52,22.90
2017,06,24,12,53,22.90
2017,06,24,12,54,22.90
2017,06,24,12,55,22.90
2017,06,24,12,56,22.90
2017,06,24,12,57,22.90
2017,06,24,12,58,22.90
2017,06,24,12,59,22.90
2017,06,24,13,00,22.90
2017,06,24,13,01,23.00
2017,06,24,13,02,23.10
2017,06,24,13,03,23.10
2017,06,24,13,04,23.10
2017,06,24,13,05,23.00
2017,06,24,13,06,22.90
2017,06,24,13,07,22.90
2017,06,24,13,08,22.90
2017,06,24,13,09,22.90
2017,06,24,13,10,22.90
2017,06,24,13,11,22.90
2017,06,24,13,12,22.90
2017,06,24,13,13,22.90
2017,06,24,13,14,23.00
2017,06,24,13,15,23.10
2017,06,24,13,16,23.20
2017,06,24,13,17,23.20
2017,06,24,13,18,23.30
2017,06,24,13,19,23.30
2017,06,24,13,20,23.30
2017,06,24,13,21,23.40
2017,06,24,13,22,23.30
2017,06,24,13,23,23.40
2017,06,24,13,24,23.40
2017,06,24,13,25,23.30
2017,06,24,13,26,23.30
2017,06,24,13,27,23.40
2017,06,24,13,28,23.60
2017,06,24,13,29,23.70
2017,06,24,13,30,23.70
2017,06,24,13,31,23.70
2017,06,24,13,32,23.70
2017,06,24,13,33,23.70
2017,06,24,13,34,23.80
2017,06,24,13,35,23.90
2017,06,24,13,36,24.00
2017,06,24,13,37,24.10
2017,06,24,13,38,24.10
2017,06,24,13,39,24.10
2017,06,24,13,40,24.00
2017,06,24,13,41,23.90
2017,06,24,13,42,23.90
2017,06,24,13,43,24.00
2017,06,24,13,44,24.10
2017,06,24,13,45,24.10
2017,06,24,13,46,24.10
2017,06,24,13,47,24.10
2017,06,24,13,48,24.10
2017,06,24,13,49,24.00
2017,06,24,13,50,24.00
2017,06,24,13,51,24.10
2017,06,24,13,52,24.20
2017,06,24,13,53,24.30
2017,06,24,13,54,24.30
2017,06,24,13,55,24.40
2017,06,24,13,56,24.50
2017,06,24,13,57,24.60
2017,06,24,13,58,24.70
2017,06,24,13,59,24.70
2017,06,24,14,00,24.70
2017,06,24,14,01,24.70
2017,06,24,14,02,24.70
2017,06,24,14,03,24.70
2017,06,24,14,04,24.70
2017,06,24,14,05,24.60
2017,06,24,14,06,24.60
2017,06,24,14,07,24.50
2017,06,24,14,08,24.50
2017,06,24,14,09,24.50
2017,06,24,14,10,24.60
2017,06,24,14,11,24.70
2017,06,24,14,12,24.70
2017,06,24,14,13,24.80
2017,06,24,14,14,24.90
2017,06,24,14,15,24.80
2017,06,24,14,16,24.80
2017,06,24,14,17,24.70
2017,06,24,14,18,24.70
2017,06,24,14,19,24.60
2017,06,24,14,20,24.60
2017,06,24,14,21,24.50
2017,06,24,14,22,24.50
2017,06,24,14,23,24.50
2017,06,24,14,24,24.70
2017,06,24,14,25,24.70
2017,06,24,14,26,24.80
2017,06,24,14,27,24.90
2017,06,24,14,28,24.90
2017,06,24,14,29,24.90
2017,06,24,14,30,24.80
2017,06,24,14,31,24.80
2017,06,24,14,32,24.80
2017,06,24,14,33,24.90
2017,06,24,14,34,24.90
2017,06,24,14,35,24.90
2017,06,24,14,36,25.00
2017,06,24,14,37,25.00
2017,06,24,14,38,25.00
2017,06,24,14,39,24.90
2017,06,24,14,40,24.90
2017,06,24,14,41,24.90
2017,06,24,14,42,25.00
2017,06,24,14,43,25.00
2017,06,24,14,44,25.00
2017,06,24,14,45,25.00
2017,06,24,14,46,25.00
2017,06,24,14,47,25.00
2017,06,24,14,48,25.00
2017,06,24,14,49,24.90
2017,06,24,14,50,24.90
2017,06,24,14,51,24.90
2017,06,24,14,52,25.00
2017,06,24,14,53,25.00
2017,06,24,14,54,24.90
2017,06,24,14,55,24.90
2017,06,24,14,56,24.90
2017,06,24,14,57,24.90
2017,06,24,14,58,25.00
2017,06,24,14,59,25.00
2017,06,24,15,00,25.10
2017,06,24,15,01,25.20
2017,06,24,15,02,25.30
2017,06,24,15,03,25.40
2017,06,24,15,04,25.40
2017,06,24,15,05,25.40
2017,06,24,15,06,25.40
2017,06,24,15,07,25.40
2017,06,24,15,08,25.40
2017,06,24,15,09,25.40
2017,06,24,15,10,25.40
2017,06,24,15,11,25.30
2017,06,24,15,12,25.30
2017,06,24,15,13,25.30
2017,06,24,15,14,25.20
2017,06,24,15,15,25.20
2017,06,24,15,16,25.20
2017,06,24,15,17,25.20
2017,06,24,15,18,25.20
2017,06,24,15,19,25.10
2017,06,24,15,20,25.10
2017,06,24,15,21,25.10
2017,06,24,15,22,25.10
2017,06,24,15,23,25.00
2017,06,24,15,24,25.00
2017,06,24,15,25,25.00
2017,06,24,15,26,25.10
2017,06,24,15,27,25.10
2017,06,24,15,28,25.20
2017,06,24,15,29,25.30
2017,06,24,15,30,25.30
2017,06,24,15,31,25.30
2017,06,24,15,32,25.30
2017,06,24,15,33,25.20
2017,06,24,15,34,25.20
2017,06,24,15,35,25.20
2017,06,24,15,36,25.20
2017,06,24,15,37,25.20
2017,06,24,15,38,25.20
2017,06,24,15,39,25.20
2017,06,24,15,40,25.20
2017,06,24,15,41,25.20
2017,06,24,15,42,25.20
2017,06,24,15,43,25.20
2017,06,24,15,44,25.30
2017,06,24,15,45,25.40
2017,06,24,15,46,25.50
2017,06,24,15,47,25.50
2017,06,24,15,48,25.50
2017,06,24,15,49,25.60
2017,06,24,15,50,25.60
2017,06,24,15,51,25.60
2017,06,24,15,52,25.70
2017,06,24,15,53,25.70
2017,06,24,15,54,25.80
2017,06,24,15,55,25.70
2017,06,24,15,56,25.60
2017,06,24,15,57,25.60
2017,06,24,15,58,25.60
2017,06,24,15,59,25.50
2017,06,24,16,00,25.50
2017,06,24,16,01,25.50
2017,06,24,16,02,25.50
2017,06,24,16,03,25.50
2017,06,24,16,04,25.50
2017,06,24,16,05,25.50
2017,06,24,16,06,25.50
2017,06,24,16,07,25.60
2017,06,24,16,08,25.60
2017,06,24,16,09,25.60
2017,06,24,16,10,25.70
2017,06,24,16,11,25.80
2017,06,24,16,12,25.80
2017,06,24,16,13,25.90
2017,06,24,16,14,26.00
2017,06,24,16,15,26.10
2017,06,24,16,16,26.20
2017,06,24,16,17,26.20
2017,06,24,16,18,26.30
2017,06,24,16,19,26.30
2017,06,24,16,20,26.30
2017,06,24,16,21,26.30
2017,06,24,16,22,26.30
2017,06,24,16,23,26.40
2017,06,24,16,24,26.50
2017,06,24,16,25,26.60
2017,06,24,16,26,26.60
2017,06,24,16,27,26.70
2017,06,24,16,28,26.70
2017,06,24,16,29,26.70
2017,06,24,16,30,26.70
2017,06,24,16,31,26.70
2017,06,24,16,32,26.80
2017,06,24,16,33,26.70
2017,06,24,16,34,26.70
2017,06,24,16,35,26.70
2017,06,24,16,36,26.70
2017,06,24,16,37,26.70
2017,06,24,16,38,26.70
2017,06,24,16,39,26.70
2017,06,24,16,40,26.70
2017,06,24,16,41,26.70
2017,06,24,16,42,26.70
2017,06,24,16,43,26.80
2017,06,24,16,44,26.80
2017,06,24,16,45,26.80
2017,06,24,16,46,26.90
2017,06,24,16,47,26.90
2017,06,24,16,48,26.90
2017,06,24,16,49,26.90
2017,06,24,16,50,26.90
2017,06,24,16,51,26.90
2017,06,24,16,52,26.80
2017,06,24,16,53,26.70
2017,06,24,16,54,26.60
2017,06,24,16,55,26.60
2017,06,24,16,56,26.60
2017,06,24,16,57,26.60
2017,06,24,16,58,26.60
2017,06,24,16,59,26.60
2017,06,24,17,00,26.50
2017,06,24,17,01,26.40
2017,06,24,17,02,26.40
2017,06,24,17,03,26.40
2017,06,24,17,04,26.30
2017,06,24,17,05,26.30
2017,06,24,17,06,26.30
2017,06,24,17,07,26.30
2017,06,24,17,08,26.30
2017,06,24,17,09,26.40
2017,06,24,17,10,26.40
2017,06,24,17,11,26.40
2017,06,24,17,12,26.50
2017,06,24,17,13,26.60
2017,06,24,17,14,26.60
2017,06,24,17,15,26.70
2017,06,24,17,16,26.80
2017,06,24,17,17,26.80
2017,06,24,17,18,26.80
2017,06,24,17,19,26.80